Regional Weather Roundup
Issued by NWS

Home | Current Version | Previous Version | Text Only | Print | Product List | Glossary Off
Versions: 1 2 3 4 5 6 7 8 9 10 11 12 13 14 15 16 17 18 19 20 21 22 23 24 25 26 27 28 29 30 31 32 33 34 35 36 37 38 39 40 41 42 43 44 45 46 47 48 49 50

997
ASUS43 KOAX 172310
RWRNE

WEATHER ROUNDUP FOR NEBRASKA
NATIONAL WEATHER SERVICE OMAHA NE
500 PM CST TUE JAN 17 2017

NOTES: SATELLITE DATA IS BEING USED TO AUGMENT CLOUD COVER ABOVE
       12000 FEET.
       "FAIR" INDICATES FEW OR NO CLOUDS BELOW 12,000 FEET WITH NO
       SIGNIFICANT WEATHER AND/OR OBSTRUCTIONS TO VISIBILITY.

  * THESE STATIONS DO NOT REPORT WEATHER SUCH AS RAIN...SNOW OR FOG.

NEZ001>004-019>022-054>056-180000-
NEBRASKA PANHANDLE

CITY           SKY/WX    TMP DP  RH WIND       PRES   REMARKS
SCOTTSBLUFF    CLEAR     48  19  31 CALM      29.97S
ALLIANCE       CLEAR     44  19  36 SW7       29.95R
CHADRON        CLOUDY    34  23  64 W5        29.93S WCI  30
KIMBALL        CLEAR     44  33  65 W5        29.99R
SIDNEY         CLEAR     41  31  67 SW10      29.99S
$$

NEZ057>060-069>072-079>082-180000-
SOUTHWEST NEBRASKA

CITY           SKY/WX    TMP DP  RH WIND       PRES   REMARKS
NORTH PLATTE   CLEAR     43  29  57 SW6       30.02S
IMPERIAL       CLEAR     43  27  53 SW8       30.03S
LEXINGTON      CLEAR     46  31  56 CALM      30.04S
MCCOOK         CLEAR     45  29  53 SW8       30.05S
OGALLALA       CLEAR     44  31  60 SW6       30.00S
$$

NEZ005>010-023>029-035>040-094-180000-
NORTH CENTRAL NEBRASKA

CITY           SKY/WX    TMP DP  RH WIND       PRES   REMARKS
VALENTINE      CLEAR     47  13  25 SW9       29.93S
AINSWORTH      CLEAR     47  22  36 SW8       29.95R
BROKEN BOW     CLEAR     41  28  60 SW10      30.00S
O`NEILL        CLEAR     43  33  67 S7        29.98S
ORD            CLEAR     40  29  64 S5        30.01S
THEDFORD       CLEAR     46  27  46 SW8       29.97S
$$

NEZ041-046>049-061>064-073>077-083>087-180000-
SOUTH CENTRAL NEBRASKA

CITY           SKY/WX    TMP DP  RH WIND       PRES   REMARKS
GRAND ISLAND   CLEAR     38  34  85 SW7       30.05S WCI  33
AURORA         CLEAR     36  35  95 SW5       30.06S WCI  32
HASTINGS       CLEAR     39  33  79 SW3       30.07S
HEBRON         CLEAR     37  32  82 SW3       30.10S
HOLDREGE       CLEAR     41  33  73 SW5       30.05S
KEARNEY *      CLEAR     41  34  75 SW7       30.05S
YORK           CLEAR     36  32  87 SW6       30.08R WCI  31
$$

NEZ011>018-030>034-042>045-180000-
NORTHEAST NEBRASKA

CITY           SKY/WX    TMP DP  RH WIND       PRES   REMARKS
NORFOLK        CLEAR     33  30  88 S5        30.03S WCI  29
ALBION         CLEAR     36  32  86 CALM      30.03S
BLAIR          CLEAR     33  30  88 SW3       30.07S
FREMONT        CLEAR     33  30  88 CALM      30.09R
TEKAMAH        CLEAR     34  29  82 SW6       30.08R WCI  29
WAYNE          CLEAR     34  32  93 S5        30.04S WCI  29
$$

NEZ050>053-065>068-078-088>093-180000-
SOUTHEAST NEBRASKA

CITY           SKY/WX    TMP DP  RH WIND       PRES   REMARKS
LINCOLN        CLEAR     36  30  79 SW7       30.11R WCI  30
OMAHA EPPLEY   PTCLDY    34  27  75 E3        30.10R
BEATRICE       CLEAR     35  32  87 SW6       30.10S WCI  30
FALLS CITY     CLEAR     34  30  85 W3        30.12R
NEBRASKA CITY  PTCLDY    32  32 100 S3        30.11R
PLATTSMOUTH    CLEAR     34  28  80 SW3       30.09S
$$

NEZ044-045-051>053-067-180000-
OMAHA AREA

CITY           SKY/WX    TMP DP  RH WIND       PRES   REMARKS
OMAHA EPPLEY   PTCLDY    34  27  75 E3        30.10R
BLAIR          CLEAR     33  30  88 SW3       30.07S
FREMONT        CLEAR     33  30  88 CALM      30.09R
MILLARD        CLEAR     37  30  77 CALM      30.10R
OFFUTT AFB     CLEAR     35  32  87 SW5       30.09S WCI  31
PLATTSMOUTH    CLEAR     34  28  80 SW3       30.09S
WAHOO          FAIR      34  30  84 W3        30.08S
$$




USA.gov is the U.S. government's official web portal to all federal, state and local government web resources and services.